Date String (YYYY-MM-DD hh:mm:ss) UTC,Instrument flags,Ambient pressure (hPa),Sample flow (lpm),Bypass flow (lpm),Sample temperature (°C),Ambient temperature (°C),ASC tube jacket temperature (°C),LED temperature (°C),Box temperature (°C),Sample RH (%),Span deviation,Mass concentration (μg/m³),Mass concentration (μg/m³),Mass concentration (μg/m³)
DateTimeUTC,F1_M11,P_M11,Q1_M11,Q2_M11,T1_M11,T2_M11,T3_M11,T4_M11,T5_M11,U1_M11,ZSPAN_M11,X0_M11,X2_M11,X1_M11
2023-02-27 22:00:00,,0815.2,5.00,0.00,22.2,20.6,00.0,31.0,23.9,08.3,0000.0,0002.91,0000.78,0000.31
2023-02-27 22:01:00,,0815.3,4.99,0.00,22.2,20.6,00.0,31.0,23.9,08.4,0000.0,0002.86,0000.73,0000.31
2023-02-27 22:02:00,,0815.3,5.01,0.00,22.2,20.6,00.0,31.0,23.9,08.3,0000.0,0002.88,0000.73,0000.31
2023-02-27 22:03:00,,0815.4,4.99,0.00,22.2,20.6,00.0,31.0,23.9,08.3,0000.0,0002.90,0000.75,0000.31
2023-02-27 22:04:00,,0815.4,5.00,0.00,22.2,20.5,00.0,31.0,23.9,08.4,0000.0,0002.09,0000.76,0000.30
2023-02-27 22:05:00,,0815.4,5.01,0.00,22.2,20.5,00.0,31.0,23.9,08.8,0000.0,0002.00,0000.74,0000.30
2023-02-27 22:06:00,,0815.3,4.99,0.00,22.1,20.5,00.0,31.0,23.9,08.5,0000.0,0002.01,0000.74,0000.29
2023-02-27 22:07:00,,0815.4,5.00,0.00,22.1,20.5,00.0,31.0,23.8,08.6,0000.0,0001.98,0000.72,0000.29
2023-02-27 22:08:00,,0815.3,5.00,0.00,22.1,20.5,00.0,30.9,23.8,08.8,0000.0,0001.72,0000.65,0000.28
2023-02-27 22:09:00,,0815.3,5.00,0.00,22.1,20.5,00.0,30.9,23.8,08.7,0000.0,0001.55,0000.58,0000.27
2023-02-27 22:10:00,,0815.3,4.99,0.00,22.1,20.5,00.0,30.9,23.8,08.5,0000.0,0001.41,0000.54,0000.26
2023-02-27 22:11:00,,0815.2,5.00,0.00,22.1,20.5,00.0,30.9,23.8,08.6,0000.0,0001.29,0000.51,0000.25
2023-02-27 22:12:00,,0815.2,4.99,0.00,22.1,20.5,00.0,30.9,23.8,08.6,0000.0,0001.24,0000.51,0000.25
2023-02-27 22:13:00,,0815.3,5.00,0.00,22.1,20.5,00.0,30.9,23.7,08.2,0000.0,0001.26,0000.52,0000.26
2023-02-27 22:14:00,,0815.3,5.00,0.00,22.0,20.5,00.0,30.8,23.7,08.4,0000.0,0001.23,0000.50,0000.26
2023-02-27 22:15:00,,0815.3,5.02,0.00,22.0,20.5,00.0,30.8,23.7,08.3,0000.0,0001.12,0000.47,0000.26
2023-02-27 22:16:00,,0815.3,5.01,0.00,22.0,20.6,00.0,30.8,23.8,08.7,0000.0,0001.07,0000.45,0000.26
2023-02-27 22:17:00,,0815.4,5.02,0.00,22.1,21.6,00.0,30.8,24.1,08.6,0000.0,0001.11,0000.46,0000.26
2023-02-27 22:18:00,,0815.5,4.99,0.00,22.3,22.8,00.0,30.8,24.4,08.3,0000.0,0001.23,0000.47,0000.27
2023-02-27 22:19:00,,0815.4,5.01,0.00,22.4,23.0,00.0,30.9,24.5,08.2,0000.0,0001.26,0000.48,0000.27
2023-02-27 22:20:00,,0815.4,5.00,0.00,22.4,22.6,00.0,31.0,24.4,08.2,0000.0,0001.16,0000.48,0000.27
2023-02-27 22:21:00,,0815.4,4.98,0.00,22.5,22.2,00.0,31.0,24.4,08.4,0000.0,0001.09,0000.48,0000.28
2023-02-27 22:22:00,,0815.4,5.00,0.00,22.5,21.9,00.0,31.0,24.3,08.4,0000.0,0001.10,0000.51,0000.28
2023-02-27 22:23:00,,0815.4,5.00,0.00,22.5,21.6,00.0,31.0,24.3,08.2,0000.0,0001.18,0000.54,0000.29
2023-02-27 22:24:00,,0815.4,5.00,0.00,22.5,21.4,00.0,31.1,24.2,08.2,0000.0,0001.16,0000.54,0000.29
2023-02-27 22:25:00,,0815.4,5.01,0.00,22.5,21.3,00.0,31.1,24.2,08.2,0000.0,0001.30,0000.57,0000.28
2023-02-27 22:26:00,,0815.5,4.99,0.00,22.4,21.2,00.0,31.1,24.2,08.3,0000.0,0001.37,0000.59,0000.28
2023-02-27 22:27:00,,0815.5,5.00,0.00,22.4,21.1,00.0,31.1,24.2,08.4,0000.0,0001.61,0000.58,0000.28
2023-02-27 22:28:00,,0815.4,5.00,0.00,22.4,21.1,00.0,31.1,24.2,08.6,0000.0,0003.13,0000.61,0000.28
2023-02-27 22:29:00,,0815.4,5.01,0.00,22.4,21.0,00.0,31.1,24.2,08.7,0000.0,0003.13,0000.64,0000.28
2023-02-27 22:30:00,,0815.4,5.01,0.00,22.4,21.0,00.0,31.1,24.1,08.3,0000.0,0003.19,0000.65,0000.28
2023-02-27 22:31:00,,0815.4,4.99,0.00,22.4,21.0,00.0,31.1,24.1,08.5,0000.0,0003.27,0000.68,0000.28
2023-02-27 22:32:00,,0815.4,4.99,0.00,22.4,20.9,00.0,31.1,24.1,08.4,0000.0,0003.27,0000.68,0000.28
2023-02-27 22:33:00,,0815.4,4.99,0.00,22.4,20.9,00.0,31.1,24.1,08.2,0000.0,0003.20,0000.64,0000.28
2023-02-27 22:34:00,,0815.4,5.00,0.00,22.4,20.8,00.0,31.1,24.0,08.6,0000.0,0003.19,0000.62,0000.27
2023-02-27 22:35:00,,0815.6,4.99,0.00,22.3,20.8,00.0,31.1,24.0,08.3,0000.0,0003.18,0000.61,0000.27
2023-02-27 22:36:00,,0815.6,5.00,0.00,22.3,20.8,00.0,31.1,24.1,08.5,0000.0,0003.11,0000.58,0000.27
2023-02-27 22:37:00,,0815.4,5.01,0.00,22.3,20.8,00.0,31.1,24.1,08.6,0000.0,0003.07,0000.57,0000.28
2023-02-27 22:38:00,,0815.4,5.00,0.00,22.3,20.8,00.0,31.1,24.0,08.5,0000.0,0002.67,0000.59,0000.28
2023-02-27 22:39:00,,0815.4,4.99,0.00,22.3,20.7,00.0,31.1,24.0,08.6,0000.0,0001.23,0000.54,0000.28
2023-02-27 22:40:00,,0815.4,5.00,0.00,22.3,20.7,00.0,31.0,24.0,08.7,0000.0,0001.72,0000.56,0000.28
2023-02-27 22:41:00,,0815.5,5.00,0.00,22.3,20.7,00.0,31.0,23.9,08.5,0000.0,0001.68,0000.54,0000.29
2023-02-27 22:42:00,,0815.5,5.00,0.00,22.3,20.7,00.0,31.0,24.0,08.4,0000.0,0001.69,0000.55,0000.29
2023-02-27 22:43:00,,0815.4,5.00,0.00,22.3,20.7,00.0,31.0,24.0,08.5,0000.0,0001.76,0000.57,0000.29
2023-02-27 22:44:00,,0815.5,5.01,0.00,22.2,20.7,00.0,31.0,24.0,08.6,0000.0,0001.84,0000.61,0000.30
2023-02-27 22:45:00,,0815.7,4.99,0.00,22.2,20.7,00.0,31.0,23.9,08.4,0000.0,0001.83,0000.63,0000.31
2023-02-27 22:46:00,,0815.8,5.00,0.00,22.2,20.7,00.0,31.0,23.9,08.2,0000.0,0001.85,0000.62,0000.30
2023-02-27 22:47:00,,0815.5,4.99,0.00,22.2,20.7,00.0,31.0,23.9,08.5,0000.0,0001.83,0000.64,0000.30
2023-02-27 22:48:00,,0815.4,5.01,0.00,22.2,20.7,00.0,31.0,23.9,08.5,0000.0,0002.03,0000.68,0000.30
2023-02-27 22:49:00,,0815.6,5.00,0.00,22.2,20.7,00.0,31.0,23.9,08.5,0000.0,0002.00,0000.66,0000.30
2023-02-27 22:50:00,,0815.7,5.00,0.00,22.2,20.7,00.0,31.0,23.9,08.7,0000.0,0001.98,0000.65,0000.29
2023-02-27 22:51:00,,0816.0,5.00,0.00,22.2,20.7,00.0,31.0,23.9,08.7,0000.0,0001.34,0000.58,0000.29
2023-02-27 22:52:00,,0815.8,5.00,0.00,22.2,20.7,00.0,31.0,23.9,08.6,0000.0,0001.30,0000.58,0000.28
2023-02-27 22:53:00,,0816.0,5.00,0.00,22.2,20.7,00.0,31.0,23.9,08.7,0000.0,0001.27,0000.57,0000.28
2023-02-27 22:54:00,,0816.1,5.01,0.00,22.2,20.7,00.0,30.9,23.9,08.6,0000.0,0001.19,0000.55,0000.28
2023-02-27 22:55:00,,0815.9,5.00,0.00,22.2,20.7,00.0,30.9,23.9,08.5,0000.0,0001.12,0000.52,0000.28
2023-02-27 22:56:00,,0815.9,5.00,0.00,22.2,20.6,00.0,30.9,23.9,08.8,0000.0,0001.06,0000.49,0000.27
2023-02-27 22:57:00,,0815.6,5.00,0.00,22.1,20.7,00.0,30.9,23.9,09.0,0000.0,0001.17,0000.50,0000.28
2023-02-27 22:58:00,,0815.7,5.01,0.00,22.1,20.7,00.0,30.9,23.9,09.1,0000.0,0002.52,0000.60,0000.28
2023-02-27 22:59:00,,0815.4,5.00,0.00,22.1,20.7,00.0,30.9,23.8,09.0,0000.0,0002.56,0000.60,0000.28
